Regional Weather Roundup
Issued by NWS Upton, NY

Current Version | Previous Version | Text Only | Print | Product List | Glossary On
Versions: 1 2 3 4 5 6 7 8 9 10 11 12 13 14 15 16 17 18 19 20 21 22 23 24 25 26 27 28 29 30 31 32 33 34 35 36 37 38 39 40 41 42 43 44 45 46 47 48 49 50
000
ASUS41 KOKX 260908
RWROKX

REGIONAL WEATHER ROUNDUP
NATIONAL WEATHER SERVICE NEW YORK NY
500 AM EDT SUN MAR 26 2017

NOTE: "FAIR" INDICATES FEW OR NO CLOUDS BELOW 12,000 FEET WITH NO
SIGNIFICANT WEATHER AND/OR OBSTRUCTIONS TO VISIBILITY.

NYZ071-072-176-178-NJZ106-104-261000-
NEW YORK CITY METRO AREA

CITY           SKY/WX    TMP DP  RH WIND       PRES   REMARKS
Central Park   LGT RAIN  38  35  89 VRB7      30.43S WCI  33
Wall St Helipt LGT RAIN  40  36  86 NE15      30.41F WCI  32
LaGuardia APRT CLOUDY    40  34  79 NE15      30.41S WCI  32
Kennedy INTL   LGT RAIN  40  38  93 NE12      30.42S WCI  33
Breezy Point     N/A     39 N/A N/A NE12        N/A  WCI  32
Newark/Liberty LGT RAIN  40  36  86 NE12      30.40F WCI  33
Teterboro      LGT RAIN  41  32  70 NE14G22   30.41S
$$

NYZ177-179-078>081-261000-
LONG ISLAND NEW YORK

CITY           SKY/WX    TMP DP  RH WIND       PRES   REMARKS
Jones Beach      N/A     39 N/A N/A E17         N/A  WCI  30
Matinecock PT  NOT AVBL
Farmingdale    CLOUDY    39  35  86 NE7       30.41F WCI  34
MacArthur/ISP  CLOUDY    39  34  82 NE12      30.41S WCI  32
Shirley        CLOUDY    38  33  82 VRB3      30.43S
Westhampton    LGT RAIN  38  31  76 NE7       30.44S WCI  33
East Hampton   CLOUDY    36  31  80 NE6       30.44R WCI  32
Montauk          N/A     38  33  82 NE7       30.45R WCI  33
$$

NYZ052-065-067-261000-
HUDSON VALLEY

CITY           SKY/WX    TMP DP  RH WIND       PRES   REMARKS
White Plains   LGT RAIN  38  30  73 NE9       30.40S WCI  31
Newburgh       CLOUDY    34  32  93 NE6       30.44R WCI  29
Montgomery     CLOUDY    35  28  75 N9        30.42R WCI  28
Poughkeepsie   CLOUDY    34  30  85 N5        30.44R WCI  30
Albany         CLOUDY    27  17  66 CALM      30.47R
$$

NJZ001-105-106-008-010-013-015-019>022-104-261000-
NEW JERSEY

CITY           SKY/WX    TMP DP  RH WIND       PRES   REMARKS
Newark/Liberty LGT RAIN  40  36  86 NE12      30.40F WCI  33
Teterboro      LGT RAIN  41  32  70 NE14G22   30.41S
Caldwell       CLOUDY    39  33  79 E10       30.42R WCI  32
Somerville       N/A     41  34  76 NE6       30.38R
Linden         CLOUDY    40  35  82 E13G18    30.41S WCI  33
Sussex         CLOUDY    35  32  88 NE7       30.41R WCI  29
Andover          N/A     35  33  92 NE6       30.39S WCI  30
Trenton        CLOUDY    42  37  82 E13       30.36S
Millville      CLOUDY    45  39  79 E12       30.32S
Atlantic City  CLOUDY    44  38  79 NE15      30.35R
Wrightstown    CLOUDY    42  38  86 NE12      30.34R
Toms River     CLOUDY    41  38  89 NE12G18   30.38R
Belmar         CLOUDY    40  37  89 NE13G24   30.39R WCI  32
$$

PAZ047>061-062-071-261000-
EASTERN PENNSYLVANIA

CITY           SKY/WX    TMP DP  RH WIND       PRES   REMARKS
Philadelphia   CLOUDY    44  38  79 E10G21    30.36S
Allentown      CLOUDY    40  34  79 NE12      30.36S WCI  33
Scranton       CLOUDY    38  33  82 E5        30.34S WCI  34
$$

CTZ002-004>006-009-010-012-RIZ004-006-007-MAZ004-011-015-261000-
SOUTHERN NEW ENGLAND
 IN CT

CITY           SKY/WX    TMP DP  RH WIND       PRES   REMARKS
Bradley INTL   PTCLDY    29  27  92 N6        30.46R WCI  23
Hartford       MOCLDY    30  29  96 N6        30.47R WCI  24
Danbury        CLOUDY    36  29  75 NE6       30.44R WCI  31
Wtrbury/Oxford CLOUDY    34  25  69 NE6       30.43R WCI  29
Bridgeport     LGT RAIN  38  32  79 NE8       30.45R WCI  32
Meriden        CLOUDY    35  29  78 N6        30.46R WCI  30
New Haven      CLOUDY    36  31  82 N6        30.45R WCI  31
Chester        NOT AVBL
Groton         CLOUDY    32  29  88 NW3       30.45R
Wilimantic     CLOUDY    28  25  88 CALM      30.46R

 IN RI

CITY           SKY/WX    TMP DP  RH WIND       PRES   REMARKS
Providence     CLOUDY    31  26  82 NE8       30.46R WCI  23
Block Island   PTCLDY    35  33  92 NE9       30.44S WCI  28
Westerly       CLOUDY    32  29  88 NE3       30.44S
 IN MA

CITY           SKY/WX    TMP DP  RH WIND       PRES   REMARKS
Boston         CLOUDY    31  26  82 N9        30.48R WCI  23
Worcester      CLOUDY    28  22  78 NE9       30.42S WCI  19
Westfield      PTCLDY    29  27  92 N9        30.46R WCI  20
Provincetown   CLOUDY    37  27  67 NE14      30.47R WCI  28
Nantucket      CLEAR     29  29 100 N8        30.43R WCI  21
$$

ANZ330-335-338-340-345-350-353-355-261000-
COASTAL MARINE OBSERVATIONS


STATION/POSITION TIME  SKY/WX   TEMP    WIND        PRES    VSBY  WAVE
                                AIR SEA DIR/SP/G                  HT/PER
                 (UTC)          (F)     (DEG/KT/KT) (MB)    (MI)  (FT/S)
NY HARB ENTRANCE 0850            41 42   60/ 19/ 23 1028.7          4/ 5
20 S FIRE ISLAND 0850            40 40   50/ 19/ 23 1028.0          4/ 5
GREAT SOUTH BAY  NOT AVBL
23 SSW MONTAUK P 0850            39 43              1030.1          3/ 7
15 E BARNEGAT LI 0830               43                N/A           5/ 6
HUDSON CANYON    0850            42 45   70/ 21/ 25 1027.3          5/ 5
KINGS POINT      0848            38 39              1030.0
EXECUTION ROCKS  NOT AVBL
CENTRAL LI SOUND 0830            37      20/  6/  8   N/A           1
EASTERN LI SOUND NOT AVBL
ROBBINS REEF     0848            39      60/ 14/ 17 1029.6
$$


>>>>>>>>>>>>>>>>>>>>>>>>>>>> KEY <<<<<<<<<<<<<<<<<<<<<<<<<<<
>                                                          <
>     SKY/WX - Sky Condition/Present Weather               <
>     TMP    - Temperature in Fahrenheit                   <
>     DP     - Dew Point in Fahrenheit                     <
>     RH     - Relative Humidity in Percent                <
>     WIND   - Direction (from) and Speed in MPH           <
>     PRES   - Mean Sea Level Pressure (inches of Hg)      <
>     WCI    - Wind Chill Index                            <
>     VSB    - VISIBILITY IN MILES                         <
>     HX     - HEAT INDEX                                  <
>     TC     - TEMPERATURE IN CELSIUS                      <
>     VRB    - VARIABLE WIND DIRECTION                     <
>                                                          <
>>>>>>>>>>>>>>>>>>>>>>>>>>>> KEY <<<<<<<<<<<<<<<<<<<<<<<<<<<



USA.gov is the U.S. government's official web portal to all federal, state and local government web resources and services.